Weather Roundup
Issued by NWS Chicago, IL

Home | Current Version | Previous Version | Text Only | Print | Product List | Glossary Off
Versions: 1 2 3 4 5 6 7 8 9 10 11 12 13 14 15 16 17 18 19 20 21 22 23 24 25 26 27 28 29 30 31 32 33 34 35 36 37 38 39 40 41 42 43 44 45 46 47 48 49 50

000
NZUS59 KLOT 230606
HRRLOT

CHICAGO AREA WEATHER ROUNDUP
NATIONAL WEATHER SERVICE CHICAGO/ROMEOVILLE IL
100 AM CDT THU OCT 23 2014

NOTE: "FAIR" INDICATES FEW OR NO CLOUDS BELOW 12,000 FEET WITH NO
SIGNIFICANT WEATHER AND/OR OBSTRUCTIONS TO VISIBILITY.

* THESE STATIONS ARE NOT UNDER NWS QUALITY CONTROL. THEY ALSO MAY NOT
  REPORT WEATHER SUCH AS PRECIPITATION OR FOG.

ILZ005-006-012>014-019>023-230700-
NORTHEAST ILLINOIS

CITY           SKY/WX    TMP DP  RH WIND       PRES   REMARKS
OHARE          CLEAR     38  35  89 CALM      30.25F
6HR MIN TEMP:  35; 6HR MAX TEMP:  46;

MIDWAY         CLEAR     45  39  79 SE6       30.26F
6HR MIN TEMP:  44; 6HR MAX TEMP:  50;

AURORA         CLEAR     34  30  85 SE3       30.25F
6HR MIN TEMP:  33; 6HR MAX TEMP:  48;

LANSING*       CLEAR     36  36  98 CALM      30.26F
JOLIET*        CLEAR     36  34  95 CALM      30.25F
WAUKEGAN         N/A     33  31  92 CALM      30.24F
6HR MIN TEMP:  31; 6HR MAX TEMP:  43;

DUPAGE AIRPORT CLEAR     35  33  92 CALM      30.24F
6HR MIN TEMP:  35; 6HR MAX TEMP:  48;

WHEELING       CLEAR     37  33  85 CALM      30.27F
6HR MIN TEMP:  36; 6HR MAX TEMP:  47;

KANKAKEE*      CLEAR     37  35  95 CALM      30.26F
MORRIS*        CLEAR     37  36  96 E3        30.24F
LEWIS AIRPORT* CLEAR     38  36  92 SE6       30.25F FOG
NORTHERLY IS     N/A     46  39  76 S7          N/A
$$

WIZ051-052-058>065-066-070>072-230700-
SOUTHEAST WISCONSIN

CITY           SKY/WX    TMP DP  RH WIND       PRES   REMARKS
MILWAUKEE      CLEAR     34  31  88 CALM      30.25F
6HR MIN TEMP:  34; 6HR MAX TEMP:  45;

KENOSHA*       CLEAR     33  32  96 CALM      30.25F FOG
RACINE*        CLEAR     32  30  92 CALM      30.27F
BURLINGTON     FOG       28  28 100 CALM      30.24F VSB 1/2
WAUKESHA       CLEAR     36  34  93 CALM      30.24F
WEST BEND      CLEAR     34  32  93 SE3       30.23F
$$

INZ001>003-010>013-019-020-230700-
NORTHWEST INDIANA

CITY           SKY/WX    TMP DP  RH WIND       PRES   REMARKS
GARY*          CLEAR     41  38  91 SE3       30.27F
6HR MIN TEMP:  35; 6HR MAX TEMP:  44;

MICHIGAN CITY* NOT AVBL
RENSSELAER*    NOT AVBL
VALPARAISO     CLEAR     35  34  96 NE6       30.28F FOG     WCI  30
$$

LMZ740>746-230700-
SOUTHERN LAKE MICHIGAN

STATION/POSITION TIME  SKY/WX   TEMP WIND        PRES    VSBY
                                AIR  DIR/SP/G
                 (UTC)          (F)  (DEG/KT/KT) (MB)    (MI)
HARRISON CRIB    0500            50  160/ 10/ 14   N/A
BURNHAM HARBOR   0600            46  170/  5/  6   N/A
CALUMET HARBOR   0600            45  150/  4/  8 1023.5F
BURNS HARBOR     NOT AVBL
MICHIGAN CITY    0600            41  120/  9/ 11   N/A
$$

ABBREVIATIONS USED IN REMARKS
   TC - TEMPERATURE IN CELSIUS
  WCI - WIND CHILL INDEX
   HX - HEAT INDEX
  VSB - VISIBILITY
$$



USA.gov is the U.S. government's official web portal to all federal, state and local government web resources and services.